Weather History for KMEI - July, 2013

Change the Weather History Date:

Friday, July 19, 2013

  Actual Average Record
Temperature  
Mean Temperature 80 °F 81 °F  
Max Temperature 90 °F 92 °F 103 °F (1981)
Min Temperature 69 °F 70 °F 60 °F (1976)
Degree Days  
Heating Degree Days 0 0  
Month to date heating degree days 0 0  
Since 1 June heating degree days 0 0  
Since 1 July heating degree days 0 0  
Cooling Degree Days 15 16  
Month to date cooling degree days 259 295  
Year to date cooling degree days 939 958  
Since 1 June cooling degree days 679 675  
Growing Degree Days 30 (Base 50)    
Moisture  
Dew Point 71 °F    
Average Humidity 76    
Maximum Humidity 100    
Minimum Humidity 52    
Precipitation  
Precipitation 0.00 in 0.17 in 3.30 in (1941)
Month to date precipitation 2.11 3.18  
Year to date precipitation 43.33 33.01  
Sea Level Pressure  
Sea Level Pressure 30.04 in    
Wind  
Wind Speed 4 mph (South)    
Max Wind Speed 15 mph    
Max Gust Speed 18 mph    
Visibility 10 miles    
Events      
T = Trace of Precipitation, MM = Missing Value Source: NWS Daily Summary

Daily Weather History Graph

Daily Weather History Graph

Search for Another Location

Airport or City:

Trip Planner

Search our weather history database for the weather conditions in past years. The results will help you decide how hot, cold, wet, or windy it might be!

Date:

Astronomy

Jul. 19, 2013 Rise Set
Actual Time 6:01 AM CDT 8:00 PM CDT
Civil Twilight 5:33 AM CDT 8:28 PM CDT
Nautical Twilight 5:00 AM CDT 9:01 PM CDT
Astronomical Twilight 4:24 AM CDT 9:37 PM CDT
Moon 5:03 PM CDT (7/19) 2:41 AM CDT (7/19)
Length of Visible Light 14h 54m
Length of Day
13h 59m
Waxing Gibbous, 87% of the Moon is Illuminated
Jul 19
Waxing Gibbous
Jul 22
Full
Jul 29
Last Quarter
Aug 6
New
Aug 14
First Quarter

Hourly Weather History & Observations

Time (CDT) Temp. Heat Index Dew Point Humidity Pressure Visibility Wind Dir Wind Speed Gust Speed Precip Events Conditions
12:58 AM 73.9 °F - 73.0 °F 97% 30.06 in 10.0 mi South 6.9 mph - N/A   Clear
1:58 AM 73.0 °F - 72.0 °F 96% 30.04 in 10.0 mi South 6.9 mph - N/A   Clear
2:58 AM 72.0 °F - 71.1 °F 97% 30.03 in 10.0 mi South 3.5 mph - N/A   Clear
3:58 AM 72.0 °F - 70.0 °F 93% 30.03 in 10.0 mi Calm Calm - N/A   Clear
4:58 AM 71.1 °F - 69.1 °F 93% 30.04 in 10.0 mi Calm Calm - N/A   Clear
5:58 AM 69.1 °F - 68.0 °F 96% 30.06 in 8.0 mi Calm Calm - N/A   Scattered Clouds
6:58 AM 72.0 °F - 70.0 °F 93% 30.08 in 10.0 mi Calm Calm - N/A   Clear
7:58 AM 75.9 °F - 71.1 °F 85% 30.09 in 10.0 mi Calm Calm - N/A   Clear
8:58 AM 78.1 °F - 73.0 °F 84% 30.11 in 10.0 mi SSW 5.8 mph - N/A   Clear
9:58 AM 80.1 °F 84.5 °F 73.9 °F 81% 30.10 in 10.0 mi SSE 4.6 mph - N/A   Clear
10:58 AM 84.9 °F 90.7 °F 72.0 °F 65% 30.09 in 10.0 mi Variable 5.8 mph - N/A   Scattered Clouds
11:58 AM 86.0 °F 90.7 °F 70.0 °F 59% 30.07 in 10.0 mi Variable 4.6 mph - N/A   Scattered Clouds
12:58 PM 88.0 °F 93.8 °F 71.1 °F 57% 30.05 in 10.0 mi Variable 5.8 mph - N/A   Scattered Clouds
1:58 PM 89.1 °F 93.7 °F 69.1 °F 52% 30.03 in 10.0 mi Variable 5.8 mph - N/A   Scattered Clouds
2:58 PM 88.0 °F 92.9 °F 70.0 °F 55% 30.01 in 10.0 mi South 8.1 mph - N/A   Scattered Clouds
3:58 PM 88.0 °F 91.4 °F 68.0 °F 51% 29.99 in 10.0 mi Variable 3.5 mph - N/A   Clear
4:58 PM 89.1 °F 93.7 °F 69.1 °F 52% 29.98 in 10.0 mi SSE 6.9 mph - N/A   Clear
5:58 PM 87.1 °F 92.8 °F 71.1 °F 59% 29.97 in 10.0 mi ESE 6.9 mph - N/A   Partly Cloudy
6:58 PM 84.0 °F 89.6 °F 72.0 °F 67% 29.97 in 10.0 mi SSE 5.8 mph - N/A   Clear
7:58 PM 80.1 °F 83.8 °F 72.0 °F 76% 29.99 in 10.0 mi SSE 10.4 mph - N/A   Mostly Cloudy
8:58 PM 79.0 °F - 73.0 °F 82% 30.00 in 10.0 mi SSW 5.8 mph - N/A   Clear
9:58 PM 77.0 °F - 72.0 °F 84% 30.02 in 10.0 mi SE 3.5 mph - N/A   Clear
10:12 PM 78.8 °F - 71.6 °F 78% 30.03 in 10.0 mi ESE 3.5 mph - N/A   Clear
10:58 PM 75.9 °F - 73.0 °F 91% 30.02 in 10.0 mi SW 3.5 mph - N/A   Clear
11:58 PM 75.9 °F - 73.0 °F 91% 30.02 in 10.0 mi Calm Calm - N/A   Clear